Location: ????????
(56.1167°N, 38.6333°E)
Time: 12:01:55
(UTC+00:00)

Geosat - Pass Details

Date: 18 November 2025
Orbit: 758 x 760 km, 108.0° (Epoch: 10 December)

Event Time Altitude Azimuth Distance (km) Brightness Sun altitude
Exits shadow 15:45:18 25° 141° (SE) 1,487 5.2 -20.8°
Maximum altitude 15:48:15 86° 54° (NE) 770 3.9 -21.2°
Drops below altitude 10° 15:53:17 10° 326° (NW) 2,305 6.9 -21.9°
Sets 15:55:34 0° 326° (NNW) 3,235 7.7 -22.2°
